Year,Month,Day,Hour,Minute,Value (Times are PST for windspeed in km/hr)
2009,03,31,00,00,2.80
2009,03,31,00,01,4.40
2009,03,31,00,02,2.30
2009,03,31,00,03,4.80
2009,03,31,00,04,4.80
2009,03,31,00,05,4.40
2009,03,31,00,06,5.30
2009,03,31,00,07,12.10
2009,03,31,00,08,12.50
2009,03,31,00,09,10.90
2009,03,31,00,10,7.40
2009,03,31,00,11,11.20
2009,03,31,00,12,9.50
2009,03,31,00,13,13.40
2009,03,31,00,14,8.30
2009,03,31,00,15,13.00
2009,03,31,00,16,13.30
2009,03,31,00,17,8.50
2009,03,31,00,18,10.10
2009,03,31,00,19,12.20
2009,03,31,00,20,5.60
2009,03,31,00,21,8.80
2009,03,31,00,22,10.80
2009,03,31,00,23,9.30
2009,03,31,00,24,4.10
2009,03,31,00,25,7.60
2009,03,31,00,26,7.20
2009,03,31,00,27,7.30
2009,03,31,00,28,5.20
2009,03,31,00,29,5.10
2009,03,31,00,30,8.10
2009,03,31,00,31,7.90
2009,03,31,00,32,1.30
2009,03,31,00,33,10.80
2009,03,31,00,34,9.00
2009,03,31,00,35,6.20
2009,03,31,00,36,5.80
2009,03,31,00,37,9.10
2009,03,31,00,38,6.20
2009,03,31,00,39,6.40
2009,03,31,00,40,3.90
2009,03,31,00,41,8.10
2009,03,31,00,42,9.70
2009,03,31,00,43,11.30
2009,03,31,00,44,4.40
2009,03,31,00,45,5.80
2009,03,31,00,46,5.20
2009,03,31,00,47,5.40
2009,03,31,00,48,4.80
2009,03,31,00,49,7.90
2009,03,31,00,50,5.40
2009,03,31,00,51,4.40
2009,03,31,00,52,7.00
2009,03,31,00,53,7.60
2009,03,31,00,54,11.10
2009,03,31,00,55,4.40
2009,03,31,00,56,3.80
2009,03,31,00,57,8.00
2009,03,31,00,58,5.80
2009,03,31,00,59,4.40
2009,03,31,01,00,6.60
2009,03,31,01,01,2.90
2009,03,31,01,02,12.40
2009,03,31,01,03,11.70
2009,03,31,01,04,4.80
2009,03,31,01,05,9.00
2009,03,31,01,06,8.10
2009,03,31,01,07,9.70
2009,03,31,01,08,5.00
2009,03,31,01,09,5.90
2009,03,31,01,10,10.90
2009,03,31,01,11,7.80
2009,03,31,01,12,6.10
2009,03,31,01,13,3.60
2009,03,31,01,14,8.30
2009,03,31,01,15,9.30
2009,03,31,01,16,3.90
2009,03,31,01,17,4.00
2009,03,31,01,18,11.20
2009,03,31,01,19,7.70
2009,03,31,01,20,7.50
2009,03,31,01,21,10.50
2009,03,31,01,22,8.70
2009,03,31,01,23,4.90
2009,03,31,01,24,10.10
2009,03,31,01,25,3.60
2009,03,31,01,26,10.90
2009,03,31,01,27,11.30
2009,03,31,01,28,13.20
2009,03,31,01,29,13.70
2009,03,31,01,30,10.10
2009,03,31,01,31,7.40
2009,03,31,01,32,5.70
2009,03,31,01,33,2.20
2009,03,31,01,34,9.80
2009,03,31,01,35,7.10
2009,03,31,01,36,8.50
2009,03,31,01,37,5.80
2009,03,31,01,38,3.50
2009,03,31,01,39,2.50
2009,03,31,01,40,2.40
2009,03,31,01,41,8.70
2009,03,31,01,42,7.00
2009,03,31,01,43,4.30
2009,03,31,01,44,6.20
2009,03,31,01,45,7.30
2009,03,31,01,46,3.80
2009,03,31,01,47,4.00
2009,03,31,01,48,1.00
2009,03,31,01,49,4.30
2009,03,31,01,50,4.40
2009,03,31,01,51,3.80
2009,03,31,01,52,0.20
2009,03,31,01,53,4.30
2009,03,31,01,54,4.80
2009,03,31,01,55,3.00
2009,03,31,01,56,3.40
2009,03,31,01,57,2.40
2009,03,31,01,58,1.20
2009,03,31,01,59,0.20
2009,03,31,02,00,0.00
2009,03,31,02,01,3.30
2009,03,31,02,02,1.30
2009,03,31,02,03,0.00
2009,03,31,02,04,0.00
2009,03,31,02,05,0.20
2009,03,31,02,06,0.00
2009,03,31,02,07,0.00
2009,03,31,02,08,0.00
2009,03,31,02,09,0.00
2009,03,31,02,10,2.80
2009,03,31,02,11,3.10
2009,03,31,02,12,2.10
2009,03,31,02,13,0.50
2009,03,31,02,14,1.00
2009,03,31,02,15,2.60
2009,03,31,02,16,1.40
2009,03,31,02,17,1.00
2009,03,31,02,18,0.60
2009,03,31,11,02,23.20
2009,03,31,11,03,16.30
2009,03,31,11,04,19.60
2009,03,31,11,05,24.10
2009,03,31,11,06,17.20
2009,03,31,11,07,24.80
2009,03,31,11,08,15.40
2009,03,31,11,09,23.60
2009,03,31,11,10,14.10
2009,03,31,11,11,9.10
2009,03,31,11,12,14.60
2009,03,31,11,13,17.10
2009,03,31,11,14,16.70
2009,03,31,11,15,17.60
2009,03,31,11,16,15.70
2009,03,31,11,17,10.70
2009,03,31,11,18,19.20
2009,03,31,11,19,22.70
2009,03,31,11,20,25.10
2009,03,31,11,21,17.90
2009,03,31,11,22,15.90
2009,03,31,11,23,24.60
2009,03,31,11,24,13.90
2009,03,31,11,25,15.70
2009,03,31,11,26,13.90
2009,03,31,11,27,18.60
2009,03,31,11,28,18.70
2009,03,31,11,29,13.00
2009,03,31,11,30,14.80
2009,03,31,11,31,12.20
2009,03,31,11,32,12.90
2009,03,31,11,33,10.50
2009,03,31,11,34,15.50
2009,03,31,11,35,23.70
2009,03,31,11,36,19.10
2009,03,31,11,37,13.40
2009,03,31,11,38,14.90
2009,03,31,11,39,12.10
2009,03,31,11,40,19.00
2009,03,31,11,41,17.10
2009,03,31,11,42,15.40
2009,03,31,11,43,10.80
2009,03,31,11,44,16.80
2009,03,31,11,45,11.30
2009,03,31,11,46,14.60
2009,03,31,11,47,14.50
2009,03,31,11,48,14.60
2009,03,31,11,49,11.60
2009,03,31,11,50,19.10
2009,03,31,11,51,14.60
2009,03,31,11,52,17.80
2009,03,31,11,53,15.00
2009,03,31,11,54,17.90
2009,03,31,11,55,16.20
2009,03,31,11,56,15.30
2009,03,31,11,57,23.20
2009,03,31,11,58,27.70
2009,03,31,11,59,23.90
2009,03,31,12,00,11.80
2009,03,31,12,01,16.80
2009,03,31,12,02,23.00
2009,03,31,12,03,16.20
2009,03,31,12,04,12.70
2009,03,31,12,05,30.20
2009,03,31,12,06,29.10
2009,03,31,12,07,18.30
2009,03,31,12,08,21.00
2009,03,31,12,09,19.00
2009,03,31,12,10,21.60
2009,03,31,12,11,16.70
2009,03,31,12,12,16.40
2009,03,31,12,13,12.20
2009,03,31,12,14,19.10
2009,03,31,12,15,18.30
2009,03,31,12,16,25.30
2009,03,31,12,17,21.30
2009,03,31,12,18,26.10
2009,03,31,12,19,17.50
2009,03,31,12,20,22.00
2009,03,31,12,21,21.20
2009,03,31,12,22,30.40
2009,03,31,12,23,23.70
2009,03,31,12,24,26.50
2009,03,31,12,25,18.50
2009,03,31,12,26,16.60
2009,03,31,12,27,31.70
2009,03,31,12,28,27.50
2009,03,31,12,29,20.60
2009,03,31,12,30,28.50
2009,03,31,12,31,22.00
2009,03,31,12,32,31.30
2009,03,31,12,33,29.00
2009,03,31,12,34,24.10
2009,03,31,12,35,23.20
2009,03,31,12,36,10.90
2009,03,31,12,37,35.70
2009,03,31,12,38,30.10
2009,03,31,12,39,19.60
2009,03,31,12,40,26.10
2009,03,31,12,41,24.80
2009,03,31,12,42,25.20
2009,03,31,12,43,32.30
2009,03,31,12,44,38.70
2009,03,31,12,45,21.70
2009,03,31,12,46,32.40
2009,03,31,12,47,25.90
2009,03,31,12,48,25.30
2009,03,31,12,49,19.10
2009,03,31,12,50,14.30
2009,03,31,12,51,21.40
2009,03,31,12,52,25.30
2009,03,31,12,53,22.90
2009,03,31,12,54,19.20
2009,03,31,12,55,25.10
2009,03,31,12,56,28.10
2009,03,31,12,57,26.60
2009,03,31,12,58,16.90
2009,03,31,12,59,16.70
2009,03,31,13,00,22.30
2009,03,31,13,01,27.10
2009,03,31,13,02,20.30
2009,03,31,13,03,27.80
2009,03,31,13,04,22.00
2009,03,31,13,05,22.30
2009,03,31,13,06,28.40
2009,03,31,13,07,21.80
2009,03,31,13,08,16.40
2009,03,31,13,09,23.90
2009,03,31,13,10,20.60
2009,03,31,13,11,26.00
2009,03,31,13,12,24.00
2009,03,31,13,13,18.90
2009,03,31,13,14,29.10
2009,03,31,13,15,19.80
2009,03,31,13,16,25.00
2009,03,31,13,17,20.10
2009,03,31,13,18,22.40
2009,03,31,13,19,14.60
2009,03,31,13,20,20.30
2009,03,31,13,21,28.80
2009,03,31,13,22,32.40
2009,03,31,13,23,24.70
2009,03,31,13,24,22.00
2009,03,31,13,25,18.20
2009,03,31,13,26,26.30
2009,03,31,13,27,20.80
2009,03,31,13,28,24.80
2009,03,31,13,29,28.80
2009,03,31,13,30,24.90
2009,03,31,13,31,30.40
2009,03,31,13,32,20.30
2009,03,31,13,33,30.30
2009,03,31,13,34,25.40
2009,03,31,13,35,20.20
2009,03,31,13,36,18.60
2009,03,31,13,37,27.00
2009,03,31,13,38,24.60
2009,03,31,13,39,23.70
2009,03,31,13,40,15.40
2009,03,31,13,41,20.90
2009,03,31,13,42,31.40
2009,03,31,13,43,29.90
2009,03,31,13,44,24.20
2009,03,31,13,45,18.70
2009,03,31,13,46,30.20
2009,03,31,13,47,19.90
2009,03,31,13,48,15.70
2009,03,31,13,49,25.70
2009,03,31,13,50,15.60
2009,03,31,13,51,22.00
2009,03,31,13,52,13.50
2009,03,31,13,53,14.10
2009,03,31,13,54,13.80
2009,03,31,13,55,19.40
2009,03,31,13,56,27.80
2009,03,31,13,57,21.70
2009,03,31,13,58,25.60
2009,03,31,13,59,35.20
2009,03,31,14,00,28.40
2009,03,31,14,01,19.00
2009,03,31,14,02,19.80
2009,03,31,14,03,25.20
2009,03,31,14,04,15.70
2009,03,31,14,05,18.50
2009,03,31,14,06,20.00
2009,03,31,14,07,27.30
2009,03,31,14,08,32.90
2009,03,31,14,09,25.80
2009,03,31,14,10,27.40
2009,03,31,14,11,27.80
2009,03,31,14,12,27.80
2009,03,31,14,13,18.90
2009,03,31,14,14,21.00
2009,03,31,14,15,24.10
2009,03,31,14,16,26.80
2009,03,31,14,17,20.20
2009,03,31,14,18,20.30
2009,03,31,14,19,18.40
2009,03,31,14,20,24.80
2009,03,31,14,21,31.80
2009,03,31,14,22,26.80
2009,03,31,14,23,22.20
2009,03,31,14,24,27.50
2009,03,31,14,25,22.40
2009,03,31,14,26,20.90
2009,03,31,14,27,24.20
2009,03,31,14,28,22.90
2009,03,31,14,29,18.30
2009,03,31,14,30,22.00
2009,03,31,14,31,12.20
2009,03,31,14,32,13.10
2009,03,31,14,33,8.10
2009,03,31,14,34,14.90
2009,03,31,14,35,24.50
2009,03,31,14,36,26.80
2009,03,31,14,37,25.10
2009,03,31,14,38,17.20
2009,03,31,14,39,15.60
2009,03,31,14,40,20.40
2009,03,31,14,41,20.00
2009,03,31,14,42,16.90
2009,03,31,14,43,24.30
2009,03,31,14,44,28.60
2009,03,31,14,45,27.50
2009,03,31,14,46,14.80
2009,03,31,14,47,23.30
2009,03,31,14,48,21.40
2009,03,31,14,49,22.50
2009,03,31,14,50,21.50
2009,03,31,14,51,19.70
2009,03,31,14,52,18.90
2009,03,31,14,53,8.30
2009,03,31,14,54,20.80
2009,03,31,14,55,14.20
2009,03,31,14,56,22.60
2009,03,31,14,57,20.30
2009,03,31,14,58,15.00
2009,03,31,14,59,14.80
2009,03,31,15,00,17.10
2009,03,31,15,01,11.90
2009,03,31,15,02,16.80
2009,03,31,15,03,14.70
2009,03,31,15,04,11.80
2009,03,31,15,05,11.60
2009,03,31,15,06,22.10
2009,03,31,15,07,17.20
2009,03,31,15,08,17.30
2009,03,31,15,09,15.90
2009,03,31,15,10,22.80
2009,03,31,15,11,19.10
2009,03,31,15,12,13.90
2009,03,31,15,13,11.10
2009,03,31,15,14,15.40
2009,03,31,15,15,19.80
2009,03,31,15,16,16.40
2009,03,31,15,17,20.00
2009,03,31,15,18,11.00
2009,03,31,15,19,20.80
2009,03,31,15,20,15.60
2009,03,31,15,21,9.10
2009,03,31,15,22,18.20
2009,03,31,15,23,7.30
2009,03,31,15,24,16.90
2009,03,31,15,25,14.20
2009,03,31,15,26,11.70
2009,03,31,15,27,20.00
2009,03,31,15,28,20.20
2009,03,31,15,29,17.30
2009,03,31,15,30,8.00
2009,03,31,15,31,13.60
2009,03,31,15,32,8.80
2009,03,31,15,33,14.70
2009,03,31,15,34,19.30
2009,03,31,15,35,18.10
2009,03,31,15,36,19.60
2009,03,31,15,37,15.40
2009,03,31,15,38,15.40
2009,03,31,15,39,24.90
2009,03,31,15,40,17.90
2009,03,31,15,41,13.00
2009,03,31,15,42,20.60
2009,03,31,15,43,22.40
2009,03,31,15,44,21.10
2009,03,31,15,45,15.20
2009,03,31,15,46,11.30
2009,03,31,15,47,11.30
2009,03,31,15,48,13.40
2009,03,31,15,49,12.00
2009,03,31,15,50,11.20
2009,03,31,15,51,13.60
2009,03,31,15,52,17.90
2009,03,31,15,53,13.20
2009,03,31,15,54,11.00
2009,03,31,15,55,7.20
2009,03,31,15,56,8.60
2009,03,31,15,57,11.60
2009,03,31,15,58,11.90
2009,03,31,15,59,9.40
2009,03,31,16,00,17.30
2009,03,31,16,01,12.80
2009,03,31,16,02,15.20
2009,03,31,16,03,20.10
2009,03,31,16,04,10.50
2009,03,31,16,05,9.60
2009,03,31,16,06,14.70
2009,03,31,16,07,16.70
2009,03,31,16,08,14.10
2009,03,31,16,09,16.30
2009,03,31,16,10,14.10
2009,03,31,16,11,10.20
2009,03,31,16,12,18.70
2009,03,31,16,13,17.60
2009,03,31,16,14,15.90
2009,03,31,16,15,12.10
2009,03,31,16,16,14.90
2009,03,31,16,17,9.20
2009,03,31,16,18,9.40
2009,03,31,16,19,7.80
2009,03,31,16,20,7.80
2009,03,31,16,21,9.90
2009,03,31,16,22,11.70
2009,03,31,16,23,16.30
2009,03,31,16,24,22.60
2009,03,31,16,25,22.20
2009,03,31,16,26,17.60
2009,03,31,16,27,19.20
2009,03,31,16,28,15.00
2009,03,31,16,29,12.20
2009,03,31,16,30,16.40
2009,03,31,16,31,11.80
2009,03,31,16,32,10.10
2009,03,31,16,33,12.20
2009,03,31,16,34,22.40
2009,03,31,16,35,14.20
2009,03,31,16,36,16.50
2009,03,31,16,37,17.90
2009,03,31,16,38,15.20
2009,03,31,16,39,6.90
2009,03,31,16,40,12.40
2009,03,31,16,41,10.50
2009,03,31,16,42,12.50
2009,03,31,16,43,8.40
2009,03,31,16,44,13.80
2009,03,31,16,45,13.50
2009,03,31,16,46,8.70
2009,03,31,16,47,11.50
2009,03,31,16,48,9.90
2009,03,31,16,49,6.00
2009,03,31,16,50,8.60
2009,03,31,16,51,12.90
2009,03,31,16,52,10.30
2009,03,31,16,53,13.00
2009,03,31,16,54,16.20
2009,03,31,16,55,17.50
2009,03,31,16,56,18.20
2009,03,31,16,57,12.20
2009,03,31,16,58,16.80
2009,03,31,16,59,11.00
2009,03,31,17,00,12.20
2009,03,31,17,01,17.80
2009,03,31,17,02,7.70
2009,03,31,17,03,14.60
2009,03,31,17,04,9.10
2009,03,31,17,05,7.60
2009,03,31,17,06,16.40
2009,03,31,17,07,15.90
2009,03,31,17,08,12.60
2009,03,31,17,09,12.20
2009,03,31,17,10,17.90
2009,03,31,17,11,13.40
2009,03,31,17,12,13.60
2009,03,31,17,13,12.70
2009,03,31,17,14,13.40
2009,03,31,17,15,9.50
2009,03,31,17,16,11.00
2009,03,31,17,17,11.70
2009,03,31,17,18,10.70
2009,03,31,17,19,7.50
2009,03,31,17,20,9.70
2009,03,31,17,21,18.90
2009,03,31,17,22,17.30
2009,03,31,17,23,17.40
2009,03,31,17,24,15.00
2009,03,31,17,25,14.90
2009,03,31,17,26,14.80
2009,03,31,17,27,20.80
2009,03,31,17,28,14.60
2009,03,31,17,29,11.40
2009,03,31,17,30,14.10
2009,03,31,17,31,12.60
2009,03,31,17,32,12.90
2009,03,31,17,33,6.60
2009,03,31,17,34,18.50
2009,03,31,17,35,13.50
2009,03,31,17,36,12.60
2009,03,31,17,37,13.70
2009,03,31,17,38,6.90
2009,03,31,17,39,11.80
2009,03,31,17,40,12.50
2009,03,31,17,41,20.20
2009,03,31,17,42,8.60
2009,03,31,17,43,5.30
2009,03,31,17,44,14.50
2009,03,31,17,45,19.20
2009,03,31,17,46,10.60
2009,03,31,17,47,15.60
2009,03,31,17,48,5.40
2009,03,31,17,49,13.90
2009,03,31,17,50,13.40
2009,03,31,17,51,10.90
2009,03,31,17,52,10.10
2009,03,31,17,53,9.70
2009,03,31,17,54,14.40
2009,03,31,17,55,8.40
2009,03,31,17,56,6.80
2009,03,31,17,57,17.80
2009,03,31,17,58,16.60
2009,03,31,17,59,15.70
2009,03,31,18,00,13.00
2009,03,31,18,01,5.40
2009,03,31,18,02,13.40
2009,03,31,18,03,11.40
2009,03,31,18,04,16.90
2009,03,31,18,05,11.80
2009,03,31,18,06,9.70
2009,03,31,18,07,13.00
2009,03,31,18,08,19.70
2009,03,31,18,09,15.00
2009,03,31,18,10,14.30
2009,03,31,18,11,16.20
2009,03,31,18,12,24.90
2009,03,31,18,13,11.70
2009,03,31,18,14,15.50
2009,03,31,18,15,12.50
2009,03,31,18,16,11.70
2009,03,31,18,17,10.40
2009,03,31,18,18,13.40
2009,03,31,18,19,12.90
2009,03,31,18,20,8.80
2009,03,31,18,21,8.30
2009,03,31,18,22,15.90
2009,03,31,18,23,13.40
2009,03,31,18,24,8.90
2009,03,31,18,25,10.40
2009,03,31,18,26,8.90
2009,03,31,18,27,11.90
2009,03,31,18,28,12.60
2009,03,31,18,29,10.30
2009,03,31,18,30,16.50
2009,03,31,18,31,11.40
2009,03,31,18,32,7.20
2009,03,31,18,33,20.80
2009,03,31,18,34,12.50
2009,03,31,18,35,11.30
2009,03,31,18,36,16.00
2009,03,31,18,37,6.90
2009,03,31,18,38,8.00
2009,03,31,18,39,11.20
2009,03,31,18,40,9.80
2009,03,31,18,41,6.90
2009,03,31,18,42,10.10
2009,03,31,18,43,13.00
2009,03,31,18,44,16.60
2009,03,31,18,45,5.10
2009,03,31,18,46,15.20
2009,03,31,18,47,6.10
2009,03,31,18,48,12.50
2009,03,31,18,49,11.40
2009,03,31,18,50,10.90
2009,03,31,18,51,10.50
2009,03,31,18,52,6.30
2009,03,31,18,53,4.10
2009,03,31,18,54,5.10
2009,03,31,18,55,4.20
2009,03,31,18,56,6.70
2009,03,31,18,57,10.50
2009,03,31,18,58,15.20
2009,03,31,18,59,9.20
2009,03,31,19,00,9.30
2009,03,31,19,01,11.70
2009,03,31,19,02,5.60
2009,03,31,19,03,13.80
2009,03,31,19,04,6.70
2009,03,31,19,05,8.00
2009,03,31,19,06,2.80
2009,03,31,19,07,9.70
2009,03,31,19,08,6.00
2009,03,31,19,09,5.40
2009,03,31,19,10,9.50
2009,03,31,19,11,6.80
2009,03,31,19,12,9.80
2009,03,31,19,13,14.30
2009,03,31,19,14,11.50
2009,03,31,19,15,3.10
2009,03,31,19,16,9.50
2009,03,31,19,17,10.30
2009,03,31,19,18,10.90
2009,03,31,19,19,9.90
2009,03,31,19,20,4.30
2009,03,31,19,21,5.30
2009,03,31,19,22,7.70
2009,03,31,19,23,4.80
2009,03,31,19,24,1.90
2009,03,31,19,25,11.20
2009,03,31,19,26,9.60
2009,03,31,19,27,11.60
2009,03,31,19,28,15.50
2009,03,31,19,29,7.60
2009,03,31,19,30,9.90
2009,03,31,19,31,3.10
2009,03,31,19,32,2.40
2009,03,31,19,33,7.80
2009,03,31,19,34,6.70
2009,03,31,19,35,2.90
2009,03,31,19,36,8.30
2009,03,31,19,37,12.80
2009,03,31,19,38,6.90
2009,03,31,19,39,4.90
2009,03,31,19,40,7.40
2009,03,31,19,41,10.50
2009,03,31,19,42,3.10
2009,03,31,19,43,7.10
2009,03,31,19,44,5.80
2009,03,31,19,45,5.00
2009,03,31,19,46,7.60
2009,03,31,19,47,8.00
2009,03,31,19,48,13.00
2009,03,31,19,49,6.60
2009,03,31,19,50,3.20
2009,03,31,19,51,4.10
2009,03,31,19,52,10.30
2009,03,31,19,53,7.90
2009,03,31,19,54,10.10
2009,03,31,19,55,3.20
2009,03,31,19,56,9.50
2009,03,31,19,57,5.90
2009,03,31,19,58,7.00
2009,03,31,19,59,8.10
2009,03,31,20,00,12.90
2009,03,31,20,01,4.00
2009,03,31,20,02,9.70
2009,03,31,20,03,9.30
2009,03,31,20,04,5.40
2009,03,31,20,05,7.20
2009,03,31,20,06,14.00
2009,03,31,20,07,10.20
2009,03,31,20,08,11.70
2009,03,31,20,09,10.80
2009,03,31,20,10,14.30
2009,03,31,20,11,16.40
2009,03,31,20,12,8.40
2009,03,31,20,13,13.10
2009,03,31,20,14,6.40
2009,03,31,20,15,11.60
2009,03,31,20,16,6.70
2009,03,31,20,17,9.60
2009,03,31,20,18,9.30
2009,03,31,20,19,5.90
2009,03,31,20,20,5.80
2009,03,31,20,21,8.10
2009,03,31,20,22,3.90
2009,03,31,20,23,5.80
2009,03,31,20,24,9.60
2009,03,31,20,25,10.10
2009,03,31,20,26,10.80
2009,03,31,20,27,8.00
2009,03,31,20,28,5.70
2009,03,31,20,29,8.50
2009,03,31,20,30,12.40
2009,03,31,20,31,8.00
2009,03,31,20,32,7.10
2009,03,31,20,33,7.00
2009,03,31,20,34,6.30
2009,03,31,20,35,7.80
2009,03,31,20,36,8.60
2009,03,31,20,37,10.50
2009,03,31,20,38,7.20
2009,03,31,20,39,7.00
2009,03,31,20,40,9.70
2009,03,31,20,41,8.40
2009,03,31,20,42,5.80
2009,03,31,20,43,6.20
2009,03,31,20,44,5.80
2009,03,31,20,45,7.30
2009,03,31,20,46,8.40
2009,03,31,20,47,9.10
2009,03,31,20,48,3.80
2009,03,31,20,49,9.70
2009,03,31,20,50,11.00
2009,03,31,20,51,5.20
2009,03,31,20,52,7.20
2009,03,31,20,53,6.70
2009,03,31,20,54,5.60
2009,03,31,20,55,7.30
2009,03,31,20,56,6.50
2009,03,31,20,57,6.20
2009,03,31,20,58,6.40
2009,03,31,20,59,10.30
2009,03,31,21,00,7.50
2009,03,31,21,01,13.50
2009,03,31,21,02,8.40
2009,03,31,21,03,8.50
2009,03,31,21,04,11.30
2009,03,31,21,05,6.80
2009,03,31,21,06,6.50
2009,03,31,21,07,4.70
2009,03,31,21,08,4.80
2009,03,31,21,09,9.80
2009,03,31,21,10,11.10
2009,03,31,21,11,5.80
2009,03,31,21,12,3.40
2009,03,31,21,13,10.80
2009,03,31,21,14,9.00
2009,03,31,21,15,12.10
2009,03,31,21,16,3.70
2009,03,31,21,17,7.10
2009,03,31,21,18,7.50
2009,03,31,21,19,3.50
2009,03,31,21,20,5.80
2009,03,31,21,21,3.50
2009,03,31,21,22,1.60
2009,03,31,21,23,5.60
2009,03,31,21,24,6.40
2009,03,31,21,25,6.40
2009,03,31,21,26,5.90
2009,03,31,21,27,8.50
2009,03,31,21,28,8.00
2009,03,31,21,29,8.60
2009,03,31,21,30,8.60
2009,03,31,21,31,6.20
2009,03,31,21,32,7.90
2009,03,31,21,33,9.40
2009,03,31,21,34,6.90
2009,03,31,21,35,5.40
2009,03,31,21,36,3.90
2009,03,31,21,37,6.40
2009,03,31,21,38,4.20
2009,03,31,21,39,5.40
2009,03,31,21,40,3.70
2009,03,31,21,41,6.10
2009,03,31,21,42,6.80
2009,03,31,21,43,3.40
2009,03,31,21,44,6.00
2009,03,31,21,45,4.00
2009,03,31,21,46,8.60
2009,03,31,21,47,4.50
2009,03,31,21,48,6.00
2009,03,31,21,49,5.60
2009,03,31,21,50,1.70
2009,03,31,21,51,4.40
2009,03,31,21,52,4.20
2009,03,31,21,53,3.60
2009,03,31,21,54,3.50
2009,03,31,21,55,1.50
2009,03,31,21,56,1.80
2009,03,31,21,57,7.20
2009,03,31,21,58,5.10
2009,03,31,21,59,4.50
2009,03,31,22,00,6.40
2009,03,31,22,01,4.70
2009,03,31,22,02,10.50
2009,03,31,22,03,4.60
2009,03,31,22,04,4.70
2009,03,31,22,05,2.80
2009,03,31,22,06,6.90
2009,03,31,22,07,4.10
2009,03,31,22,08,3.10
2009,03,31,22,09,9.20
2009,03,31,22,10,3.60
2009,03,31,22,11,5.10
2009,03,31,22,12,4.20
2009,03,31,22,13,2.10
2009,03,31,22,14,4.50
2009,03,31,22,15,3.90
2009,03,31,22,16,5.80
2009,03,31,22,17,3.00
2009,03,31,22,18,6.00
2009,03,31,22,19,6.00
2009,03,31,22,20,0.70
2009,03,31,22,21,7.90
2009,03,31,22,22,6.00
2009,03,31,22,23,6.20
2009,03,31,22,24,3.10
2009,03,31,22,25,5.90
2009,03,31,22,26,5.30
2009,03,31,22,27,8.20
2009,03,31,22,28,11.30
2009,03,31,22,29,2.70
2009,03,31,22,30,2.70
2009,03,31,22,31,4.90
2009,03,31,22,32,3.80
2009,03,31,22,33,7.70
2009,03,31,22,34,6.60
2009,03,31,22,35,6.30
2009,03,31,22,36,6.70
2009,03,31,22,37,13.00
2009,03,31,22,38,6.50
2009,03,31,22,39,4.50
2009,03,31,22,40,7.00
2009,03,31,22,41,5.30
2009,03,31,22,42,4.00
2009,03,31,22,43,4.30
2009,03,31,22,44,5.80
2009,03,31,22,45,3.90
2009,03,31,22,46,6.80
2009,03,31,22,47,6.30
2009,03,31,22,48,5.10
2009,03,31,22,49,4.90
2009,03,31,22,50,3.60
2009,03,31,22,51,3.30
2009,03,31,22,52,5.90
2009,03,31,22,53,10.80
2009,03,31,22,54,4.70
2009,03,31,22,55,7.60
2009,03,31,22,56,5.20
2009,03,31,22,57,9.30
2009,03,31,22,58,5.00
2009,03,31,22,59,6.00
2009,03,31,23,00,3.00
2009,03,31,23,01,4.70
2009,03,31,23,02,7.60
2009,03,31,23,03,5.10
2009,03,31,23,04,6.80
2009,03,31,23,05,3.50
2009,03,31,23,06,6.20
2009,03,31,23,07,5.50
2009,03,31,23,08,8.30
2009,03,31,23,09,12.00
2009,03,31,23,10,7.80
2009,03,31,23,11,5.80
2009,03,31,23,12,5.10
2009,03,31,23,13,2.70
2009,03,31,23,14,5.60
2009,03,31,23,15,10.20
2009,03,31,23,16,6.40
2009,03,31,23,17,7.60
2009,03,31,23,18,8.90
2009,03,31,23,19,4.70
2009,03,31,23,20,6.00
2009,03,31,23,21,7.60
2009,03,31,23,22,5.90
2009,03,31,23,23,8.20
2009,03,31,23,24,3.60
2009,03,31,23,25,4.70
2009,03,31,23,26,3.90
2009,03,31,23,27,5.30
2009,03,31,23,28,3.50
2009,03,31,23,29,5.60
2009,03,31,23,30,4.80
2009,03,31,23,31,7.70
2009,03,31,23,32,7.60
2009,03,31,23,33,9.60
2009,03,31,23,34,3.30
2009,03,31,23,35,12.30
2009,03,31,23,36,7.40
2009,03,31,23,37,4.70
2009,03,31,23,38,10.50
2009,03,31,23,39,5.80
2009,03,31,23,40,6.70
2009,03,31,23,41,1.00
2009,03,31,23,42,1.80
2009,03,31,23,43,3.60
2009,03,31,23,44,4.20
2009,03,31,23,45,4.50
2009,03,31,23,46,3.30
2009,03,31,23,47,0.80
2009,03,31,23,48,3.90
2009,03,31,23,49,1.00
2009,03,31,23,50,0.80
2009,03,31,23,51,3.80
2009,03,31,23,52,1.50
2009,03,31,23,53,1.30
2009,03,31,23,54,1.70
2009,03,31,23,55,0.00
2009,03,31,23,56,0.10
2009,03,31,23,57,0.90
2009,03,31,23,58,2.20
2009,03,31,23,59,2.40
